Regional Weather Roundup
Issued by NWS

Home | Current Version | Previous Version | Text Only | Print | Product List | Glossary Off
Versions: 1 2 3 4 5 6 7 8 9 10 11 12 13 14 15 16 17 18 19 20 21 22 23 24 25 26 27 28 29 30 31 32 33 34 35 36 37 38 39 40 41 42 43 44 45 46 47 48 49 50

000
ASUS43 KLSX 190859
RWRMO

WEATHER SUMMARY FOR MISSOURI
NATIONAL WEATHER SERVICE SPRINGFIELD MO
400 AM CDT FRI SEP 19 2014

NOTE: "FAIR" INDICATES FEW OR NO CLOUDS BELOW 12,000 FEET WITH NO
       SIGNIFICANT WEATHER AND/OR OBSTRUCTIONS TO VISIBILITY.
       CURRENT SKY AND/OR WEATHER CONDITIONS ARE NOT AVAILABLE FOR
       CHILLICOTHE AND FARMINGTON.

MOZ001>031-035>038-043-044-053-054-191000-
...NORTHERN AND WESTERN MISSOURI...

CITY           SKY/WX    TMP DP  RH WIND       PRES   REMARKS
KANSAS CTY INT CLOUDY    61  61 100 SE9       30.01S
KANSAS C DTWN  CLOUDY    64  61  90 S6        30.01S
LEE`S SUMMIT   CLOUDY    62  61  96 S7        30.02F
ST JOSEPH      CLOUDY    61  60  97 S7        30.00F
KIRKSVILLE     CLEAR     53  51  93 SE7       30.06F

$$
MOZ066>068-077>081-088>096-101>105-191000-
...SOUTHWEST MISSOURI...

CITY           SKY/WX    TMP DP  RH WIND       PRES   REMARKS
SPRINGFIELD    CLEAR     62  59  90 S9        30.02F
JOPLIN         CLEAR     63  61  93 SE8       30.00F

$$
MOZ032>034-039>042-045>050-055>058-069>072-191000-
...CENTRAL MISSOURI...

CITY           SKY/WX    TMP DP  RH WIND       PRES   REMARKS
COLUMBIA       CLEAR     58  55  90 SE7         N/A
JEFFERSON CITY CLEAR     56  55  97 CALM      30.05S FOG
ROLLA          PTCLDY    55  54  96 E5        30.04F FOG
SEDALIA        FOG       59  58  96 SE6       30.04F VSB 1/4
OSAGE BEACH    CLOUDY    55  54  94 CALM      30.04F VSB<1/4

$$
MOZ051-052-059>065-191000-
...EAST CENTRAL MISSOURI...

CITY           SKY/WX    TMP DP  RH WIND       PRES   REMARKS
ST LOUIS INTL  CLEAR     58  53  84 SE6       30.08S
SPIRIT OF STL  CLEAR     50  50 100 CALM      30.07S
ST CHARLES     CLEAR     53  51  93 CALM      30.07F FOG

$$
MOZ072>076-082>087-097>100-106>115-191000-
...SOUTH CENTRAL AND SOUTHEAST MISSOURI...

CITY           SKY/WX    TMP DP  RH WIND       PRES   REMARKS
CAPE GIRARDEAU MOCLDY    56  55  97 SW3       30.04F FOG
FARMINGTON     CLOUDY    55  54  94 CALM      30.08F
POPLAR BLUFF   PTCLDY    60  55  83 NE5       30.02S
WEST PLAINS    PTCLDY    53  52  96 CALM      30.05F FOG

$$


USA.gov is the U.S. government's official web portal to all federal, state and local government web resources and services.